Hourly Weather Rudno

Today, 16 April, Friday

Time Temperature Precipitation Wind Pressure Humidity
00:00 +2°C° 0.3 mm 3 mps 760 mmHg 97%
01:00 +2°C° 0.3 mm 3 mps 759 mmHg 97%
02:00 +2°C° 0.5 mm 3 mps 759 mmHg 97%
03:00 +2°C° 0.5 mm 3 mps 759 mmHg 97%
04:00 +1°C° 0.5 mm 3 mps 759 mmHg 97%
05:00 +1°C° 0.2 mm 3 mps 760 mmHg 97%
06:00 +2°C° 0.2 mm 3 mps 760 mmHg 97%
07:00 +2°C° 0.2 mm 3 mps 760 mmHg 97%
08:00 +2°C° 0.1 mm 3 mps 760 mmHg 94%
09:00 +3°C° 0.1 mm 3 mps 760 mmHg 92%
10:00 +4°C° 0.1 mm 3 mps 760 mmHg 89%
11:00 +5°C° 0 mm 3 mps 760 mmHg 82%
12:00 +7°C° 0 mm 3 mps 760 mmHg 74%
13:00 +8°C° 0 mm 3 mps 760 mmHg 67%
14:00 +8°C° 0 mm 3 mps 759 mmHg 66%
15:00 +9°C° 0 mm 3 mps 759 mmHg 66%
16:00 +9°C° 0 mm 3 mps 759 mmHg 66%
17:00 +8°C° 0 mm 3 mps 759 mmHg 70%
18:00 +7°C° 0 mm 3 mps 759 mmHg 73%
19:00 +5°C° 0 mm 3 mps 759 mmHg 77%
20:00 +5°C° 0 mm 3 mps 759 mmHg 80%
21:00 +4°C° 0 mm 3 mps 759 mmHg 84%
22:00 +3°C° 0 mm 3 mps 759 mmHg 87%
23:00 +3°C° 0.1 mm 3 mps 759 mmHg 90%

Tomorrow, 17 April, Saturday

Time Temperature Precipitation Wind Pressure Humidity
00:00 +3°C° 0.1 mm 3 mps 759 mmHg 93%
01:00 +3°C° 0.1 mm 3 mps 759 mmHg 95%
02:00 +4°C° 0.3 mm 2 mps 759 mmHg 96%
03:00 +4°C° 0.3 mm 2 mps 759 mmHg 96%
04:00 +4°C° 0.3 mm 2 mps 758 mmHg 97%
05:00 +4°C° 0.1 mm 2 mps 759 mmHg 97%
06:00 +4°C° 0.1 mm 2 mps 759 mmHg 97%
07:00 +5°C° 0.1 mm 1 mps 759 mmHg 97%
08:00 +6°C° 0 mm 1 mps 759 mmHg 95%
09:00 +6°C° 0 mm 1 mps 759 mmHg 93%
10:00 +7°C° 0 mm 1 mps 759 mmHg 92%
11:00 +7°C° 0.2 mm 1 mps 759 mmHg 92%
12:00 +7°C° 0.2 mm 1 mps 759 mmHg 92%
13:00 +8°C° 0.2 mm 1 mps 759 mmHg 92%
14:00 +8°C° 0.1 mm 1 mps 759 mmHg 93%
15:00 +8°C° 0.1 mm 1 mps 759 mmHg 93%
16:00 +8°C° 0.1 mm 1 mps 758 mmHg 93%
17:00 +8°C° 0.1 mm 1 mps 758 mmHg 94%
18:00 +8°C° 0.1 mm 1 mps 758 mmHg 96%
19:00 +8°C° 0.1 mm 1 mps 758 mmHg 97%
20:00 +8°C° 0.1 mm 1 mps 758 mmHg 97%
21:00 +8°C° 0.1 mm 1 mps 759 mmHg 97%
22:00 +7°C° 0.1 mm 1 mps 759 mmHg 98%
23:00 +7°C° 0.1 mm 1 mps 759 mmHg 98%

Day after tomorrow, 18 April, Sunday

Time Temperature Precipitation Wind Pressure Humidity
00:00 +7°C° 0.1 mm 1 mps 758 mmHg 98%
01:00 +7°C° 0.1 mm 1 mps 758 mmHg 98%
02:00 +7°C° 0 mm 1 mps 758 mmHg 98%
03:00 +7°C° 0 mm 1 mps 758 mmHg 97%
04:00 +7°C° 0 mm 1 mps 758 mmHg 97%
05:00 +8°C° 0 mm 1 mps 758 mmHg 96%
06:00 +8°C° 0 mm 1 mps 758 mmHg 94%
07:00 +8°C° 0 mm 2 mps 758 mmHg 92%
08:00 +9°C° 0 mm 2 mps 759 mmHg 85%
09:00 +10°C° 0 mm 3 mps 759 mmHg 77%
10:00 +11°C° 0 mm 3 mps 759 mmHg 69%
11:00 +12°C° 0 mm 3 mps 759 mmHg 66%
12:00 +12°C° 0 mm 3 mps 758 mmHg 63%
13:00 +13°C° 0 mm 3 mps 758 mmHg 60%
14:00 +13°C° 0 mm 3 mps 758 mmHg 63%
15:00 +14°C° 0 mm 2 mps 758 mmHg 66%
16:00 +13°C° 0 mm 2 mps 758 mmHg 69%
17:00 +13°C° 0 mm 2 mps 758 mmHg 73%
18:00 +12°C° 0 mm 1 mps 758 mmHg 76%
19:00 +11°C° 0 mm 1 mps 758 mmHg 80%
20:00 +11°C° 0 mm 1 mps 758 mmHg 83%
21:00 +10°C° 0 mm 1 mps 758 mmHg 85%
22:00 +9°C° 0 mm 2 mps 758 mmHg 88%
23:00 +9°C° 0.2 mm 2 mps 758 mmHg 91%

19 April, Monday

Time Temperature Precipitation Wind Pressure Humidity
00:00 +9°C° 0.2 mm 2 mps 758 mmHg 93%
01:00 +8°C° 0.2 mm 2 mps 758 mmHg 96%
02:00 +8°C° 0 mm 2 mps 758 mmHg 96%
03:00 +8°C° 0 mm 2 mps 758 mmHg 97%
04:00 +7°C° 0 mm 2 mps 758 mmHg 97%
05:00 +8°C° 0.2 mm 2 mps 758 mmHg 95%
06:00 +8°C° 0.2 mm 2 mps 758 mmHg 94%
07:00 +8°C° 0.2 mm 2 mps 758 mmHg 92%
08:00 +9°C° 0 mm 2 mps 758 mmHg 90%
09:00 +10°C° 0 mm 2 mps 758 mmHg 88%
10:00 +11°C° 0 mm 1 mps 758 mmHg 86%
11:00 +12°C° 0.1 mm 2 mps 757 mmHg 77%
12:00 +14°C° 0.1 mm 2 mps 757 mmHg 69%
13:00 +15°C° 0.1 mm 2 mps 757 mmHg 60%
14:00 +14°C° 0 mm 3 mps 756 mmHg 58%
15:00 +14°C° 0 mm 3 mps 756 mmHg 55%
16:00 +16°C° 0 mm 3 mps 756 mmHg 53%
17:00 +14°C° 0 mm 2 mps 756 mmHg 60%
18:00 +12°C° 0 mm 2 mps 756 mmHg 68%
19:00 +11°C° 0 mm 1 mps 755 mmHg 75%
20:00 +10°C° 0 mm 1 mps 755 mmHg 76%
21:00 +10°C° 0 mm 1 mps 756 mmHg 77%
22:00 +9°C° 0 mm 1 mps 756 mmHg 78%
23:00 +9°C° 0 mm 1 mps 755 mmHg 80%

20 April, Tuesday

Time Temperature Precipitation Wind Pressure Humidity
00:00 +9°C° 0 mm 1 mps 755 mmHg 81%
01:00 +9°C° 0 mm 1 mps 755 mmHg 83%
02:00 +9°C° 0.1 mm 1 mps 755 mmHg 85%
03:00 +8°C° 0.1 mm 1 mps 755 mmHg 86%
04:00 +8°C° 0.1 mm 1 mps 754 mmHg 88%
05:00 +9°C° 0.1 mm 1 mps 754 mmHg 85%
06:00 +9°C° 0.1 mm 1 mps 754 mmHg 82%
07:00 +10°C° 0.1 mm 1 mps 754 mmHg 79%
08:00 +11°C° 0.2 mm 1 mps 754 mmHg 74%
09:00 +12°C° 0.2 mm 1 mps 754 mmHg 68%
10:00 +13°C° 0.2 mm 2 mps 753 mmHg 62%
11:00 +13°C° 0.1 mm 2 mps 753 mmHg 59%
12:00 +14°C° 0.1 mm 2 mps 753 mmHg 56%
13:00 +14°C° 0.1 mm 2 mps 753 mmHg 52%
14:00 +14°C° 0 mm 2 mps 752 mmHg 52%
15:00 +14°C° 0 mm 2 mps 752 mmHg 51%
16:00 +14°C° 0 mm 3 mps 752 mmHg 51%
17:00 +13°C° 0 mm 2 mps 752 mmHg 57%
18:00 +12°C° 0 mm 2 mps 752 mmHg 63%
19:00 +10°C° 0 mm 1 mps 752 mmHg 69%
20:00 +8°C° 0 mm 2 mps 752 mmHg 73%
21:00 +7°C° 0 mm 2 mps 752 mmHg 77%
22:00 +7°C° 0 mm 2 mps 752 mmHg 81%
23:00 +6°C° 0 mm 2 mps 752 mmHg 84%

21 April, Wednesday

Time Temperature Precipitation Wind Pressure Humidity
00:00 +5°C° 0 mm 2 mps 752 mmHg 88%
01:00 +5°C° 0 mm 2 mps 752 mmHg 91%
02:00 +4°C° 0 mm 2 mps 752 mmHg 92%
03:00 +4°C° 0 mm 2 mps 752 mmHg 94%
04:00 +3°C° 0 mm 2 mps 752 mmHg 95%
05:00 +4°C° 0 mm 2 mps 752 mmHg 89%
06:00 +5°C° 0 mm 2 mps 753 mmHg 83%
07:00 +6°C° 0 mm 2 mps 753 mmHg 78%
08:00 +8°C° 0 mm 2 mps 753 mmHg 71%
09:00 +10°C° 0 mm 3 mps 753 mmHg 64%
10:00 +11°C° 0 mm 3 mps 753 mmHg 57%
11:00 +12°C° 0.1 mm 3 mps 753 mmHg 55%
12:00 +12°C° 0.1 mm 3 mps 753 mmHg 53%
13:00 +12°C° 0.1 mm 3 mps 753 mmHg 51%
14:00 +12°C° 0 mm 3 mps 753 mmHg 52%
15:00 +12°C° 0 mm 3 mps 753 mmHg 53%
16:00 +12°C° 0 mm 3 mps 753 mmHg 54%
17:00 +11°C° 0 mm 3 mps 753 mmHg 60%
18:00 +10°C° 0 mm 3 mps 753 mmHg 65%
19:00 +9°C° 0 mm 2 mps 752 mmHg 70%
20:00 +8°C° 0 mm 2 mps 753 mmHg 73%
21:00 +7°C° 0 mm 2 mps 753 mmHg 76%
22:00 +7°C° 0 mm 2 mps 753 mmHg 80%
23:00 +6°C° 0 mm 2 mps 753 mmHg 82%
Show more